| time (UTC) | temp F | wind direction | speed knots | gust knots | rain 1hr in | rain 24hr in | rain mn in | humidity % | barometer mb |
| 20260510054549 | 47 | 238 | 5.2 | 10.4 | 0.00 | 0.00 | 0.00 | 87 | 1017.1 |
| 20260510053047 | 47 | 248 | 6.1 | 12.2 | 0.00 | 0.00 | 0.00 | 88 | 1017.3 |
| 20260510051548 | 47 | 225 | 5.2 | 9.6 | 0.00 | 0.00 | 0.00 | 89 | 1017.3 |
| 20260510050051 | 47 | 227 | 4.3 | 9.6 | 0.00 | 0.00 | 0.00 | 89 | 1017.4 |
| 20260510044555 | 46 | 257 | 4.3 | 7.8 | 0.00 | 0.00 | 0.00 | 89 | 1017.4 |
| 20260510043050 | 46 | 235 | 3.5 | 7.0 | 0.00 | 0.00 | 0.00 | 87 | 1017.6 |
| 20260510041547 | 47 | 234 | 4.3 | 7.8 | 0.00 | 0.00 | 0.00 | 86 | 1017.5 |
| 20260510040059 | 47 | 231 | 5.2 | 9.6 | 0.00 | 0.00 | 0.00 | 86 | 1017.3 |
| 20260510034549 | 47 | 246 | 4.3 | 8.7 | 0.00 | 0.00 | 0.00 | 85 | 1017.4 |
| 20260510033102 | 48 | 238 | 4.3 | 7.8 | 0.00 | 0.00 | 0.00 | 84 | 1017.5 |
| 20260510031552 | 48 | 240 | 3.5 | 13.9 | 0.00 | 0.00 | 0.00 | 82 | 1017.3 |
| 20260510030055 | 48 | 240 | 3.5 | 8.7 | 0.00 | 0.00 | 0.00 | 83 | 1017.3 |
| 20260510024550 | 48 | 237 | 2.6 | 7.0 | 0.00 | 0.00 | 0.00 | 82 | 1017.4 |
| 20260510023048 | 49 | 265 | 3.5 | 8.7 | 0.00 | 0.00 | 0.00 | 81 | 1017.3 |
| 20260510021546 | 48 | 224 | 2.6 | 9.6 | 0.00 | 0.00 | 0.00 | 81 | 1017.3 |
| 20260510020049 | 48 | 249 | 2.6 | 6.1 | 0.00 | 0.00 | 0.00 | 81 | 1016.9 |
| 20260510014549 | 48 | 240 | 1.7 | 7.0 | 0.00 | 0.00 | 0.00 | 81 | 1016.5 |
| 20260510013046 | 48 | 219 | 1.7 | 3.5 | 0.00 | 0.00 | 0.00 | 78 | 1016.3 |
| 20260510011549 | 49 | 234 | 1.7 | 4.3 | 0.00 | 0.00 | 0.00 | 77 | 1016.1 |
| 20260510010047 | 49 | 219 | 1.7 | 5.2 | 0.00 | 0.00 | 0.00 | 75 | 1016.0 |
| 20260510004544 | 50 | 215 | 1.7 | 4.3 | 0.00 | 0.00 | 0.00 | 74 | 1015.8 |
| 20260510003048 | 50 | 194 | 1.7 | 6.1 | 0.00 | 0.00 | 0.00 | 72 | 1015.7 |
| 20260510001550 | 51 | 229 | 2.6 | 7.0 | 0.00 | 0.00 | 0.00 | 71 | 1015.4 |
| 20260510000104 | 52 | 242 | 1.7 | 8.7 | 0.00 | 0.00 | 0.00 | 69 | 1015.2 |
| 20260509234555 | 53 | 255 | 3.5 | 7.8 | 0.00 | 0.00 | 0.00 | 67 | 1015.1 |
| 20260509233050 | 54 | 250 | 3.5 | 7.8 | 0.00 | 0.00 | 0.00 | 65 | 1015.1 |
| 20260509231549 | 55 | 225 | 2.6 | 8.7 | 0.00 | 0.00 | 0.00 | 65 | 1015.2 |
| 20260509230049 | 55 | 192 | 3.5 | 11.3 | 0.00 | 0.00 | 0.00 | 65 | 1015.3 |
| 20260509224550 | 55 | 270 | 2.6 | 7.8 | 0.00 | 0.00 | 0.00 | 65 | 1015.4 |
| 20260509223059 | 55 | 252 | 2.6 | 12.2 | 0.00 | 0.00 | 0.00 | 63 | 1015.3 |
| 20260509221550 | 56 | 241 | 4.3 | 11.3 | 0.00 | 0.00 | 0.00 | 61 | 1015.2 |
| 20260509220045 | 57 | 244 | 4.3 | 10.4 | 0.00 | 0.00 | 0.00 | 57 | 1015.1 |
| 20260509214548 | 58 | 232 | 4.3 | 11.3 | 0.00 | 0.00 | 0.00 | 54 | 1015.1 |
| 20260509213053 | 58 | 244 | 2.6 | 10.4 | 0.00 | 0.00 | 0.00 | 51 | 1015.0 |
| 20260509211548 | 58 | 238 | 4.3 | 7.8 | 0.00 | 0.00 | 0.00 | 50 | 1014.7 |
| 20260509210057 | 59 | 229 | 3.5 | 12.2 | 0.00 | 0.00 | 0.00 | 47 | 1014.5 |
| 20260509204554 | 61 | 235 | 4.3 | 11.3 | 0.00 | 0.00 | 0.00 | 48 | 1014.2 |
| 20260509203055 | 59 | 284 | 4.3 | 9.6 | 0.00 | 0.00 | 0.00 | 49 | 1014.1 |
| 20260509201549 | 59 | 250 | 7.0 | 14.8 | 0.00 | 0.00 | 0.00 | 52 | 1014.2 |
| 20260509200106 | 61 | 223 | 4.3 | 12.2 | 0.00 | 0.00 | 0.00 | 55 | 1014.2 |
| 20260509194547 | 60 | 225 | 4.3 | 9.6 | 0.00 | 0.00 | 0.00 | 55 | 1014.3 |
| 20260509193048 | 62 | 229 | 5.2 | 12.2 | 0.00 | 0.00 | 0.00 | 55 | 1014.1 |
| 20260509191547 | 63 | 242 | 5.2 | 10.4 | 0.00 | 0.00 | 0.00 | 55 | 1014.3 |
| 20260509190047 | 59 | 230 | 6.1 | 11.3 | 0.00 | 0.00 | 0.00 | 59 | 1014.4 |
| 20260509184558 | 59 | 250 | 5.2 | 13.9 | 0.00 | 0.00 | 0.00 | 60 | 1014.5 |
| 20260509183052 | 60 | 257 | 3.5 | 13.0 | 0.00 | 0.00 | 0.00 | 61 | 1014.5 |
| 20260509181614 | 60 | 213 | 4.3 | 8.7 | 0.00 | 0.00 | 0.00 | 63 | 1014.5 |
| 20260509180049 | 59 | 223 | 4.3 | 7.8 | 0.00 | 0.00 | 0.00 | 66 | 1014.5 |
| 20260509174558 | 58 | 227 | 4.3 | 10.4 | 0.00 | 0.00 | 0.00 | 66 | 1014.7 |
| 20260509173059 | 57 | 222 | 4.3 | 7.0 | 0.00 | 0.00 | 0.00 | 64 | 1015.0 |
| 20260509171545 | 55 | 224 | 2.6 | 6.1 | 0.00 | 0.00 | 0.00 | 73 | 1015.0 |
| 20260509170049 | 56 | 0 | 3.5 | 8.7 | 0.00 | 0.00 | 0.00 | 67 | 1015.2 |
| 20260509164549 | 55 | 218 | 3.5 | 9.6 | 0.00 | 0.00 | 0.00 | 68 | 1015.2 |
| 20260509163052 | 54 | 228 | 2.6 | 7.0 | 0.00 | 0.00 | 0.00 | 69 | 1015.0 |
| 20260509161547 | 54 | 216 | 2.6 | 7.8 | 0.00 | 0.00 | 0.00 | 68 | 1014.9 |
| 20260509160056 | 54 | 252 | 3.5 | 8.7 | 0.00 | 0.00 | 0.00 | 69 | 1014.9 |
| 20260509154549 | 56 | 219 | 4.3 | 7.8 | 0.00 | 0.00 | 0.00 | 65 | 1014.7 |
| 20260509153053 | 57 | 236 | 3.5 | 9.6 | 0.00 | 0.00 | 0.00 | 64 | 1014.7 |
| 20260509151555 | 57 | 227 | 4.3 | 8.7 | 0.00 | 0.00 | 0.00 | 64 | 1014.7 |
| 20260509150050 | 56 | 254 | 3.5 | 7.8 | 0.00 | 0.00 | 0.00 | 64 | 1014.6 |
| 20260509144604 | 56 | 240 | 5.2 | 8.7 | 0.00 | 0.00 | 0.00 | 62 | 1014.4 |
| 20260509143105 | 57 | 233 | 4.3 | 8.7 | 0.00 | 0.00 | 0.00 | 61 | 1014.5 |
| 20260509141547 | 55 | 227 | 2.6 | 7.0 | 0.00 | 0.00 | 0.00 | 66 | 1014.2 |
| 20260509140054 | 53 | 212 | 2.6 | 7.8 | 0.00 | 0.00 | 0.00 | 68 | 1014.4 |
| 20260509134605 | 52 | 243 | 3.5 | 7.0 | 0.00 | 0.00 | 0.00 | 71 | 1014.7 |
| 20260509133050 | 51 | 224 | 4.3 | 8.7 | 0.00 | 0.00 | 0.00 | 73 | 1015.0 |
| 20260509131551 | 49 | 242 | 3.5 | 7.0 | 0.00 | 0.00 | 0.00 | 77 | 1015.1 |
| 20260509130058 | 48 | 265 | 3.5 | 7.0 | 0.00 | 0.00 | 0.00 | 80 | 1015.0 |
| 20260509124547 | 47 | 261 | 3.5 | 7.8 | 0.00 | 0.00 | 0.00 | 79 | 1015.2 |
| 20260509123111 | 47 | 243 | 2.6 | 5.2 | 0.00 | 0.00 | 0.00 | 80 | 1015.3 |
| 20260509121607 | 46 | 224 | 2.6 | 4.3 | 0.00 | 0.00 | 0.00 | 81 | 1014.9 |
| 20260509120112 | 45 | 220 | 1.7 | 3.5 | 0.00 | 0.00 | 0.00 | 83 | 1014.9 |
| 20260509114550 | 44 | 235 | 1.7 | 3.5 | 0.00 | 0.00 | 0.00 | 83 | 1015.0 |
| 20260509113050 | 44 | 234 | 2.6 | 4.3 | 0.00 | 0.00 | 0.00 | 84 | 1015.0 |
| 20260509111601 | 43 | 236 | 1.7 | 3.5 | 0.00 | 0.00 | 0.00 | 84 | 1015.2 |
| 20260509110049 | 43 | 236 | 1.7 | 3.5 | 0.00 | 0.00 | 0.00 | 84 | 1015.2 |
| 20260509104551 | 43 | 236 | 1.7 | 3.5 | 0.00 | 0.00 | 0.00 | 84 | 1015.1 |
| 20260509103101 | 43 | 232 | 1.7 | 4.3 | 0.00 | 0.00 | 0.00 | 84 | 1015.1 |
| 20260509101619 | 43 | 231 | 1.7 | 4.3 | 0.00 | 0.00 | 0.00 | 84 | 1014.9 |
| 20260509100057 | 43 | 234 | 2.6 | 4.3 | 0.00 | 0.00 | 0.00 | 84 | 1014.7 |
| 20260509094549 | 42 | 232 | 2.6 | 6.1 | 0.00 | 0.00 | 0.00 | 84 | 1014.8 |
| 20260509093047 | 43 | 239 | 2.6 | 5.2 | 0.00 | 0.00 | 0.00 | 83 | 1015.0 |
| 20260509091549 | 43 | 234 | 3.5 | 7.0 | 0.00 | 0.00 | 0.00 | 82 | 1015.1 |
| 20260509090050 | 43 | 237 | 3.5 | 6.1 | 0.00 | 0.00 | 0.00 | 82 | 1015.4 |
| 20260509084550 | 43 | 226 | 3.5 | 6.1 | 0.00 | 0.00 | 0.00 | 81 | 1015.4 |
| 20260509083045 | 43 | 221 | 2.6 | 6.1 | 0.00 | 0.00 | 0.00 | 80 | 1015.4 |
| 20260509081548 | 43 | 226 | 3.5 | 7.0 | 0.00 | 0.00 | 0.00 | 79 | 1015.6 |
| 20260509080051 | 44 | 242 | 3.5 | 7.0 | 0.00 | 0.00 | 0.00 | 78 | 1015.5 |
| 20260509074550 | 44 | 232 | 4.3 | 8.7 | 0.00 | 0.00 | 0.00 | 77 | 1015.5 |
| 20260509073105 | 44 | 227 | 3.5 | 7.0 | 0.00 | 0.00 | 0.00 | 76 | 1015.7 |
| 20260509071556 | 45 | 258 | 3.5 | 8.7 | 0.00 | 0.00 | 0.00 | 75 | 1015.7 |
| 20260509070055 | 44 | 229 | 3.5 | 7.8 | 0.00 | 0.00 | 0.00 | 74 | 1016.0 |
| 20260509064604 | 44 | 214 | 4.3 | 6.1 | 0.00 | 0.00 | 0.00 | 74 | 1016.1 |
| 20260509063049 | 43 | 225 | 2.6 | 6.1 | 0.00 | 0.00 | 0.00 | 74 | 1016.2 |
| 20260509061550 | 44 | 226 | 3.5 | 12.2 | 0.00 | 0.00 | 0.00 | 73 | 1016.3 |
| 20260509060049 | 44 | 221 | 3.5 | 7.0 | 0.00 | 0.00 | 0.00 | 73 | 1016.4 |